Time,TemperatureF,DewpointF,PressureIn,WindDirection,WindDirectionDegrees,WindSpeedMPH,WindSpeedGustMPH,Humidity,HourlyPrecipIn,Conditions,Clouds,dailyrainin,SolarRadiationWatts/m^2,SoftwareType,DateUTC
2013-01-31 00:09:00,30.9,23.0,30.01,West,259,8.0,11.0,73,0.00,,,0.00,0,weatherlink.com 1.10,2013-01-31 06:09:00,
2013-01-31 00:24:00,31.2,24.0,30.02,WNW,293,8.0,11.0,74,0.00,,,0.00,0,weatherlink.com 1.10,2013-01-31 06:24:00,
2013-01-31 00:39:00,31.7,24.0,30.02,West,266,5.0,9.0,72,0.00,,,0.00,0,weatherlink.com 1.10,2013-01-31 06:39:00,
2013-01-31 00:54:00,31.0,23.0,30.02,West,276,6.0,9.0,73,0.00,,,0.00,0,weatherlink.com 1.10,2013-01-31 06:54:00,
2013-01-31 01:09:00,29.9,23.0,30.02,West,267,7.0,9.0,75,0.00,,,0.00,0,weatherlink.com 1.10,2013-01-31 07:09:00,
2013-01-31 01:24:00,29.4,23.0,30.02,West,261,6.0,9.0,76,0.00,,,0.00,0,weatherlink.com 1.10,2013-01-31 07:24:00,
2013-01-31 01:39:00,28.8,22.0,30.03,WNW,284,0.0,7.0,75,0.00,,,0.00,0,weatherlink.com 1.10,2013-01-31 07:39:00,
2013-01-31 01:54:00,28.5,22.0,30.04,WNW,289,3.0,4.0,78,0.00,,,0.00,0,weatherlink.com 1.10,2013-01-31 07:54:00,
2013-01-31 02:09:00,27.9,22.0,30.04,WNW,293,1.0,2.0,79,0.00,,,0.00,0,weatherlink.com 1.10,2013-01-31 08:09:00,
2013-01-31 02:24:00,28.5,23.0,30.04,WNW,296,0.0,5.0,80,0.00,,,0.00,0,weatherlink.com 1.10,2013-01-31 08:24:00,
2013-01-31 02:40:00,29.8,24.0,30.05,West,266,5.0,9.0,79,0.00,,,0.00,0,weatherlink.com 1.10,2013-01-31 08:40:00,
2013-01-31 02:55:00,31.1,25.0,30.05,West,263,3.0,10.0,77,0.00,,,0.00,0,weatherlink.com 1.10,2013-01-31 08:55:00,
2013-01-31 03:10:00,31.6,25.0,30.04,West,273,4.0,6.0,75,0.00,,,0.00,0,weatherlink.com 1.10,2013-01-31 09:10:00,
2013-01-31 03:25:00,31.7,25.0,30.04,West,271,3.0,4.0,75,0.00,,,0.00,0,weatherlink.com 1.10,2013-01-31 09:25:00,
2013-01-31 03:40:00,31.9,25.0,30.05,West,270,4.0,7.0,75,0.00,,,0.00,0,weatherlink.com 1.10,2013-01-31 09:40:00,
2013-01-31 03:55:00,31.6,25.0,30.05,West,281,5.0,8.0,76,0.00,,,0.00,0,weatherlink.com 1.10,2013-01-31 09:55:00,
2013-01-31 04:10:00,31.8,25.0,30.04,West,275,4.0,8.0,76,0.00,,,0.00,0,weatherlink.com 1.10,2013-01-31 10:10:00,
2013-01-31 04:25:00,31.9,25.0,30.04,WNW,301,0.0,7.0,76,0.00,,,0.00,0,weatherlink.com 1.10,2013-01-31 10:25:00,
2013-01-31 04:40:00,32.0,25.0,30.04,NW,315,0.0,5.0,76,0.00,,,0.00,0,weatherlink.com 1.10,2013-01-31 10:40:00,
2013-01-31 04:55:00,31.3,25.0,30.04,NW,317,0.0,3.0,77,0.00,,,0.00,0,weatherlink.com 1.10,2013-01-31 10:55:00,
2013-01-31 05:10:00,31.0,25.0,30.05,NW,314,0.0,5.0,78,0.00,,,0.00,0,weatherlink.com 1.10,2013-01-31 11:10:00,
2013-01-31 05:25:00,31.3,25.0,30.05,NNW,327,7.0,9.0,78,0.00,,,0.00,0,weatherlink.com 1.10,2013-01-31 11:25:00,
2013-01-31 05:40:00,32.0,25.0,30.07,NW,317,2.0,11.0,76,0.00,,,0.00,0,weatherlink.com 1.10,2013-01-31 11:40:00,
2013-01-31 05:55:00,32.0,25.0,30.07,NW,324,7.0,10.0,75,0.00,,,0.00,0,weatherlink.com 1.10,2013-01-31 11:55:00,
2013-01-31 06:10:00,32.2,24.0,30.08,NW,307,4.0,10.0,73,0.00,,,0.00,0,weatherlink.com 1.10,2013-01-31 12:10:00,
2013-01-31 06:25:00,32.3,25.0,30.10,NW,305,2.0,13.0,73,0.00,,,0.00,0,weatherlink.com 1.10,2013-01-31 12:25:00,
2013-01-31 06:40:00,32.3,24.0,30.10,West,280,8.0,10.0,72,0.00,,,0.00,0,weatherlink.com 1.10,2013-01-31 12:40:00,
2013-01-31 06:55:00,32.3,24.0,30.11,WSW,250,5.0,11.0,71,0.00,,,0.00,0,weatherlink.com 1.10,2013-01-31 12:55:00,
2013-01-31 07:10:00,32.0,24.0,30.12,West,261,6.0,12.0,72,0.00,,,0.00,0,weatherlink.com 1.10,2013-01-31 13:10:00,
2013-01-31 07:25:00,32.0,23.0,30.13,WNW,298,4.0,12.0,70,0.00,,,0.00,0,weatherlink.com 1.10,2013-01-31 13:25:00,
2013-01-31 07:40:00,31.8,23.0,30.13,WNW,294,3.0,8.0,70,0.00,,,0.00,0,weatherlink.com 1.10,2013-01-31 13:40:00,
2013-01-31 07:55:00,31.5,23.0,30.14,WNW,291,2.0,7.0,70,0.00,,,0.00,0,weatherlink.com 1.10,2013-01-31 13:55:00,
2013-01-31 08:10:00,31.2,22.0,30.15,West,273,4.0,9.0,70,0.00,,,0.00,11,weatherlink.com 1.10,2013-01-31 14:10:00,
2013-01-31 08:25:00,31.3,23.0,30.16,WNW,296,0.0,6.0,70,0.00,,,0.00,28,weatherlink.com 1.10,2013-01-31 14:25:00,
2013-01-31 08:40:00,31.2,23.0,30.17,WNW,288,0.0,5.0,71,0.00,,,0.00,32,weatherlink.com 1.10,2013-01-31 14:40:00,
2013-01-31 08:55:00,31.4,24.0,30.18,NNW,337,1.0,3.0,73,0.00,,,0.00,58,weatherlink.com 1.10,2013-01-31 14:55:00,
2013-01-31 09:10:00,31.8,24.0,30.19,North,355,0.0,5.0,74,0.00,,,0.00,63,weatherlink.com 1.10,2013-01-31 15:10:00,
2013-01-31 09:25:00,30.1,22.0,30.21,NE,48,5.0,10.0,72,0.00,,,0.00,88,weatherlink.com 1.10,2013-01-31 15:25:00,
2013-01-31 09:40:00,28.0,21.0,30.22,NE,46,4.0,8.0,76,0.00,,,0.00,144,weatherlink.com 1.10,2013-01-31 15:40:00,
2013-01-31 09:55:00,28.1,21.0,30.24,NNE,26,4.0,7.0,76,0.00,,,0.00,179,weatherlink.com 1.10,2013-01-31 15:55:00,
2013-01-31 10:10:00,27.7,20.0,30.25,ENE,67,4.0,9.0,74,0.00,,,0.00,188,weatherlink.com 1.10,2013-01-31 16:10:00,
2013-01-31 10:26:00,27.5,20.0,30.27,East,94,3.0,10.0,73,0.00,,,0.00,185,weatherlink.com 1.10,2013-01-31 16:26:00,
2013-01-31 10:41:00,27.3,20.0,30.28,North,5,2.0,8.0,74,0.00,,,0.00,141,weatherlink.com 1.10,2013-01-31 16:41:00,
2013-01-31 10:56:00,27.0,20.0,30.29,NNW,334,6.0,10.0,75,0.00,,,0.00,469,weatherlink.com 1.10,2013-01-31 16:56:00,
2013-01-31 11:11:00,28.3,21.0,30.30,NNE,18,6.0,8.0,75,0.00,,,0.00,304,weatherlink.com 1.10,2013-01-31 17:11:00,
2013-01-31 11:26:00,26.7,19.0,30.31,NE,43,2.0,9.0,72,0.00,,,0.00,304,weatherlink.com 1.10,2013-01-31 17:26:00,
2013-01-31 11:41:00,25.4,16.0,30.32,NE,55,3.0,10.0,68,0.00,,,0.00,216,weatherlink.com 1.10,2013-01-31 17:41:00,
2013-01-31 11:56:00,24.7,15.0,30.32,ENE,70,8.0,10.0,66,0.00,,,0.00,299,weatherlink.com 1.10,2013-01-31 17:56:00,
2013-01-31 12:11:00,25.5,15.0,30.33,NE,47,3.0,10.0,65,0.00,,,0.00,339,weatherlink.com 1.10,2013-01-31 18:11:00,
2013-01-31 12:26:00,27.1,16.0,30.33,NNW,331,3.0,10.0,63,0.00,,,0.00,281,weatherlink.com 1.10,2013-01-31 18:26:00,
2013-01-31 12:41:00,26.5,15.0,30.34,NW,323,1.0,8.0,62,0.00,,,0.00,316,weatherlink.com 1.10,2013-01-31 18:41:00,
2013-01-31 12:56:00,26.3,14.0,30.33,NNW,336,0.0,9.0,60,0.00,,,0.00,309,weatherlink.com 1.10,2013-01-31 18:56:00,
2013-01-31 13:11:00,27.7,15.0,30.32,NNW,338,0.0,9.0,59,0.00,,,0.00,563,weatherlink.com 1.10,2013-01-31 19:11:00,
2013-01-31 13:26:00,28.7,15.0,30.32,NW,304,2.0,7.0,56,0.00,,,0.00,325,weatherlink.com 1.10,2013-01-31 19:26:00,
2013-01-31 13:41:00,28.8,15.0,30.33,NNW,342,3.0,9.0,56,0.00,,,0.00,380,weatherlink.com 1.10,2013-01-31 19:41:00,
2013-01-31 13:56:00,28.8,14.0,30.33,NW,317,6.0,11.0,55,0.00,,,0.00,308,weatherlink.com 1.10,2013-01-31 19:56:00,
2013-01-31 14:11:00,27.7,14.0,30.33,NNW,343,4.0,8.0,57,0.00,,,0.00,315,weatherlink.com 1.10,2013-01-31 20:11:00,
2013-01-31 14:26:00,29.4,15.0,30.32,West,259,1.0,10.0,55,0.00,,,0.00,592,weatherlink.com 1.10,2013-01-31 20:26:00,
2013-01-31 14:41:00,28.9,14.0,30.31,NE,34,2.0,11.0,53,0.00,,,0.00,608,weatherlink.com 1.10,2013-01-31 20:41:00,
2013-01-31 14:56:00,29.3,15.0,30.32,NNE,13,2.0,9.0,55,0.00,,,0.00,512,weatherlink.com 1.10,2013-01-31 20:56:00,
2013-01-31 15:11:00,29.7,14.0,30.31,NNW,345,2.0,9.0,53,0.00,,,0.00,431,weatherlink.com 1.10,2013-01-31 21:11:00,
2013-01-31 15:26:00,29.2,13.0,30.32,West,281,7.0,11.0,52,0.00,,,0.00,404,weatherlink.com 1.10,2013-01-31 21:26:00,
2013-01-31 15:41:00,28.6,13.0,30.33,NNW,341,4.0,10.0,53,0.00,,,0.00,362,weatherlink.com 1.10,2013-01-31 21:41:00,
2013-01-31 15:56:00,28.8,13.0,30.33,WNW,299,4.0,10.0,53,0.00,,,0.00,330,weatherlink.com 1.10,2013-01-31 21:56:00,
2013-01-31 16:11:00,28.3,13.0,30.32,NW,306,5.0,9.0,52,0.00,,,0.00,290,weatherlink.com 1.10,2013-01-31 22:11:00,
2013-01-31 16:26:00,29.0,14.0,30.34,NW,323,3.0,8.0,53,0.00,,,0.00,248,weatherlink.com 1.10,2013-01-31 22:26:00,
2013-01-31 16:41:00,28.5,14.0,30.32,North,5,1.0,7.0,54,0.00,,,0.00,195,weatherlink.com 1.10,2013-01-31 22:41:00,
2013-01-31 16:56:00,29.0,14.0,30.33,NW,319,0.0,6.0,54,0.00,,,0.00,141,weatherlink.com 1.10,2013-01-31 22:56:00,
2013-01-31 17:11:00,27.5,14.0,30.32,NNW,346,0.0,8.0,56,0.00,,,0.00,69,weatherlink.com 1.10,2013-01-31 23:11:00,
2013-01-31 17:26:00,26.7,14.0,30.33,NNE,12,1.0,4.0,58,0.00,,,0.00,25,weatherlink.com 1.10,2013-01-31 23:26:00,
2013-01-31 17:41:00,25.8,14.0,30.33,NE,34,0.0,3.0,60,0.00,,,0.00,23,weatherlink.com 1.10,2013-01-31 23:41:00,
2013-01-31 17:56:00,25.2,13.0,30.33,NNE,33,0.0,1.0,60,0.00,,,0.00,9,weatherlink.com 1.10,2013-01-31 23:56:00,
2013-01-31 18:11:00,24.2,14.0,30.34,NNE,33,0.0,0.0,64,0.00,,,0.00,0,weatherlink.com 1.10,2013-02-01 00:11:00,
2013-01-31 18:26:00,23.6,13.0,30.34,East,82,2.0,3.0,63,0.00,,,0.00,0,weatherlink.com 1.10,2013-02-01 00:26:00,
2013-01-31 18:41:00,23.1,13.0,30.35,East,92,0.0,4.0,64,0.00,,,0.00,0,weatherlink.com 1.10,2013-02-01 00:41:00,
2013-01-31 18:56:00,22.9,13.0,30.35,East,96,0.0,3.0,65,0.00,,,0.00,0,weatherlink.com 1.10,2013-02-01 00:56:00,
2013-01-31 19:11:00,23.3,13.0,30.36,SE,146,1.0,4.0,64,0.00,,,0.00,0,weatherlink.com 1.10,2013-02-01 01:11:00,
2013-01-31 19:26:00,23.0,12.0,30.36,ESE,120,5.0,6.0,64,0.00,,,0.00,0,weatherlink.com 1.10,2013-02-01 01:26:00,
2013-01-31 19:41:00,23.0,12.0,30.36,SSE,150,1.0,5.0,64,0.00,,,0.00,0,weatherlink.com 1.10,2013-02-01 01:41:00,
2013-01-31 19:56:00,23.1,13.0,30.37,ESE,121,4.0,5.0,64,0.00,,,0.00,0,weatherlink.com 1.10,2013-02-01 01:56:00,
2013-01-31 20:11:00,23.2,13.0,30.37,SSE,148,4.0,6.0,65,0.00,,,0.00,0,weatherlink.com 1.10,2013-02-01 02:11:00,
2013-01-31 20:26:00,23.4,13.0,30.39,South,174,1.0,5.0,64,0.00,,,0.00,0,weatherlink.com 1.10,2013-02-01 02:26:00,
2013-01-31 20:41:00,23.5,13.0,30.39,South,173,4.0,6.0,64,0.00,,,0.00,0,weatherlink.com 1.10,2013-02-01 02:41:00,
2013-01-31 20:57:00,23.6,14.0,30.38,South,183,4.0,6.0,66,0.00,,,0.00,0,weatherlink.com 1.10,2013-02-01 02:57:00,
2013-01-31 21:12:00,23.8,14.0,30.38,SSE,163,9.0,14.0,66,0.00,,,0.00,0,weatherlink.com 1.10,2013-02-01 03:12:00,
2013-01-31 21:27:00,23.6,14.0,30.39,SSE,162,6.0,9.0,68,0.00,,,0.00,0,weatherlink.com 1.10,2013-02-01 03:27:00,
2013-01-31 21:42:00,23.8,14.0,30.39,South,177,6.0,12.0,67,0.00,,,0.00,0,weatherlink.com 1.10,2013-02-01 03:42:00,
2013-01-31 21:57:00,24.0,14.0,30.39,South,179,8.0,11.0,67,0.00,,,0.00,0,weatherlink.com 1.10,2013-02-01 03:57:00,
2013-01-31 22:12:00,24.2,15.0,30.39,South,172,6.0,11.0,68,0.00,,,0.00,0,weatherlink.com 1.10,2013-02-01 04:12:00,
2013-01-31 22:27:00,24.5,15.0,30.39,South,178,8.0,9.0,68,0.00,,,0.00,0,weatherlink.com 1.10,2013-02-01 04:27:00,
2013-01-31 22:42:00,24.7,16.0,30.38,SSW,195,5.0,9.0,69,0.00,,,0.00,0,weatherlink.com 1.10,2013-02-01 04:42:00,
2013-01-31 22:57:00,25.0,16.0,30.38,South,177,6.0,10.0,69,0.00,,,0.00,0,weatherlink.com 1.10,2013-02-01 04:57:00,
2013-01-31 23:12:00,25.3,17.0,30.37,South,187,7.0,12.0,70,0.00,,,0.00,0,weatherlink.com 1.10,2013-02-01 05:12:00,
2013-01-31 23:27:00,25.2,17.0,30.37,SSW,208,10.0,15.0,71,0.00,,,0.00,0,weatherlink.com 1.10,2013-02-01 05:27:00,
2013-01-31 23:42:00,25.1,18.0,30.36,SSW,201,8.0,17.0,73,0.00,,,0.00,0,weatherlink.com 1.10,2013-02-01 05:42:00,
2013-01-31 23:57:00,25.2,18.0,30.36,SSW,202,7.0,15.0,74,0.00,,,0.00,0,weatherlink.com 1.10,2013-02-01 05:57:00,